Location: Alafon
(8.4500°N, 4.2333°E)
Time: 01:50:04
(UTC+00:00)

FALCON 9 DEB - Pass Details

Date: 05 July 2020
Orbit: 429 x 440 km, 53.0° (Epoch: 06 August)

Event Time Altitude Azimuth Distance (km) Brightness Sun altitude
Rises 18:47:14 0° 315° (NW) 2,380 8.4 -10.2°
Reaches altitude 10° 18:49:24 10° 307° (NW) 1,517 7.3 -10.7°
Maximum altitude 18:52:37 40° 236° (WSW) 640 4.2 -11.4°
Drops below altitude 10° 18:55:52 10° 165° (SSE) 1,524 5.5 -12.1°
Enters shadow 18:55:58 - 164° (SSE) 1,563 5.6 -12.2°
